TimeEST,TemperatureF,Dew PointF,Humidity,Sea Level PressureIn,VisibilityMPH,Wind Direction,Wind SpeedMPH,Gust SpeedMPH,PrecipitationIn,Events,Conditions,WindDirDegrees,DateUTC
12:53 AM,21.9,12.9,68,30.41,7.0,Calm,Calm,-,N/A,,Clear,0,2013-02-10 05:53:00
1:53 AM,19.0,12.0,74,30.42,10.0,Calm,Calm,-,N/A,,Clear,0,2013-02-10 06:53:00
2:53 AM,19.9,12.9,74,30.41,10.0,Calm,Calm,-,N/A,,Clear,0,2013-02-10 07:53:00
3:53 AM,18.0,12.0,78,30.41,8.0,Calm,Calm,-,N/A,,Clear,0,2013-02-10 08:53:00
4:53 AM,17.1,10.9,77,30.41,10.0,Calm,Calm,-,N/A,,Clear,0,2013-02-10 09:53:00
5:53 AM,17.1,10.9,77,30.42,8.0,Calm,Calm,-,N/A,,Clear,0,2013-02-10 10:53:00
6:53 AM,17.1,12.0,81,30.45,7.0,Calm,Calm,-,N/A,,Clear,0,2013-02-10 11:53:00
7:53 AM,18.0,12.9,81,30.46,4.0,Calm,Calm,-,N/A,,Haze,0,2013-02-10 12:53:00
8:53 AM,24.1,17.1,75,30.46,7.0,Calm,Calm,-,N/A,,Clear,0,2013-02-10 13:53:00
9:53 AM,30.9,19.0,61,30.45,10.0,Calm,Calm,-,N/A,,Clear,0,2013-02-10 14:53:00
10:53 AM,35.1,18.0,50,30.43,10.0,SE,5.8,-,N/A,,Clear,140,2013-02-10 15:53:00
11:53 AM,39.0,16.0,39,30.40,10.0,SSE,9.2,-,N/A,,Clear,160,2013-02-10 16:53:00
12:53 PM,42.1,16.0,35,30.38,10.0,SSE,8.1,-,N/A,,Clear,150,2013-02-10 17:53:00
1:53 PM,43.0,14.0,31,30.33,10.0,SE,12.7,-,N/A,,Clear,140,2013-02-10 18:53:00
2:53 PM,43.0,14.0,31,30.31,10.0,SSE,11.5,17.3,N/A,,Clear,150,2013-02-10 19:53:00
3:53 PM,43.0,15.1,32,30.30,10.0,South,10.4,-,N/A,,Clear,170,2013-02-10 20:53:00
4:53 PM,43.0,15.1,32,30.29,10.0,SSE,9.2,-,N/A,,Clear,150,2013-02-10 21:53:00
5:53 PM,41.0,16.0,36,30.28,10.0,SSE,6.9,-,N/A,,Clear,150,2013-02-10 22:53:00
6:53 PM,42.1,16.0,35,30.27,10.0,SSE,9.2,-,N/A,,Clear,150,2013-02-10 23:53:00
7:53 PM,41.0,16.0,36,30.27,10.0,South,10.4,-,N/A,,Clear,170,2013-02-11 00:53:00
8:53 PM,41.0,17.1,38,30.26,10.0,SSE,8.1,-,N/A,,Clear,160,2013-02-11 01:53:00
9:53 PM,39.9,18.0,41,30.23,10.0,SE,5.8,-,N/A,,Overcast,140,2013-02-11 02:53:00
10:53 PM,39.9,18.0,41,30.20,10.0,SE,4.6,-,N/A,,Clear,140,2013-02-11 03:53:00
11:53 PM,41.0,19.0,41,30.19,10.0,SSE,9.2,-,N/A,,Mostly Cloudy,160,2013-02-11 04:53:00